Weather in Anzio

Italy     41°27′04″N   12°37′30″E
temp.,
°C
wind,
m/s
gust,
m/s
humid.,
%
clouds,
%
prec.,
mm/h
press.,
hPa
HPBL,
m
19 september, sun
sun1923:00+21nne118394 0.0 101352
02:00+20ene11880 0.0 101475
05:00+20ne22880 0.1 101336
08:00+21n11825 0.1 101370
11:00+25w33635 0.1 1014964
14:00+26wsw55630 0.6 10141104
17:00+25wsw35610 0.1 1013855
20:00+22w698310 1.2 1013380
20 september, mon
mon2023:00+21w47690 0.5 1014283
02:00+20wsw477446 0.5 1014357
05:00+21wsw5767100 0.1 1013441
08:00+22wsw686499 0.1 1014706
11:00+23wsw6762100 0.1 10151394
14:00+24wsw675732 0.3 10151482
17:00+24w665816 0.2 10141375
20:00+21w336812 0.2 1015242
21 september, tue
tue2123:00+21sw3470100 0.0 1017264
02:00+20s347128 0.1 1017224
05:00+19e22730 0.0 1016139
08:00+19ene23730 0.0 101884
11:00+24se33550 0.0 10191190
14:00+26ssw435010 0.0 10191539
17:00+24sw325743 0.0 1019660
20:00+21wnw2271100 0.0 102086
22 september, wed
wed2223:00+20nnw1273100 0.0 102055
02:00+19ese227632 0.0 101941
05:00+19ese22800 0.0 101973
08:00+20se237618 0.0 1019167
11:00+24ssw326335 0.0 10191050
14:00+25wsw54592 0.1 10181050
17:00+24wsw54610 0.0 1017684
20:00+21wnw33720 0.0 1017130
23 september, thu
thu2323:00+20nw33670 0.0 1017108
02:00+19ne11691 0.0 101771
05:00+18ese22825 0.0 101668
08:00+19e23773 0.0 1016156
11:00+23s32550 0.0 1017839
14:00+25ssw53484 0.0 10171182
17:00+24sw33551 0.0 1016731
20:00+20wnw22671 0.0 101696